Regional Weather Roundup
Issued by NWS

Home | Current Version | Previous Version | Text Only | Print | Product List | Glossary Off
Versions: 1 2 3 4 5 6 7 8 9 10 11 12 13 14 15 16 17 18 19 20 21 22 23 24 25 26 27 28 29 30 31 32 33 34 35 36 37 38 39 40 41 42 43 44 45 46 47 48 49 50

000
ASUS43 KIND 171359
RWRIN

WEATHER ROUNDUP FOR INDIANA
NATIONAL WEATHER SERVICE INDIANAPOLIS IN
900 AM EST SAT FEB 17 2018

NOTE: "FAIR" INDICATES FEW OR NO CLOUDS BELOW 12,000 FEET WITH NO
SIGNIFICANT WEATHER AND/OR OBSTRUCTIONS TO VISIBILITY.

* - STATION DOES NOT REPORT WEATHER SUCH AS PRECIPITATION OR FOG.

+ - STATION NOT QUALITY CONTROLLED BY THE NATIONAL WEATHER SERVICE.
    USE DATA WITH CAUTION...ESPECIALLY DEWPOINT AND RELATIVE
    HUMIDITY OBSERVATIONS.

INZ001>003-010>013-019-020-171500-
NORTHWEST INDIANA

CITY           SKY/WX    TMP DP  RH WIND       PRES   REMARKS
GARY /AIRPORT/ CLOUDY    23  18  80 S6        30.13F WCI  16
KNOX *+        FAIR      25  21  86 S9        30.15F WCI  15
MONTICELLO +   FAIR      26  24  91 CALM      30.14F

$$

LMZ046-743>745-171500-
SOUTHERN LAKE MICHIGAN

STATION/POSITION TIME  TEMP    WIND        PRES    WAVE
                       AIR SEA DIR/SP/G            HT
                 (UTC) (F)     (DEG/KT/KT) (MB)    (FT)
BURNS HARBOR     1340   24     170/  9/ 13 1020.7F
MICHIGAN CITY    1330   21     150/  9/ 11   N/A

$$

INZ004-005-014>016-021>024-171500-
NORTH CENTRAL INDIANA

CITY           SKY/WX    TMP DP  RH WIND       PRES   REMARKS
ELKHART        SUNNY     21  18  86 SE5       30.15F WCI  15
GOSHEN         FAIR      26  21  81 SE6       30.14F WCI  19
PERU/GRISSOM   PTSUNNY   28  28 100 SE7       30.14F WCI  21
SOUTH BEND     FAIR      20  15  81 CALM      30.15F
WARSAW +       FAIR      27  23  86 CALM      30.15F

$$

INZ006>009-017-018-025>027-171500-
NORTHEAST INDIANA

CITY           SKY/WX    TMP DP  RH WIND       PRES   REMARKS
AUBURN +       FAIR      28  23  80 S3        30.17F
FORT WAYNE     CLOUDY    29  24  82 S6        30.18F WCI  23
KENDALLVILLE + FAIR      27  24  89 S7        30.15F WCI  19

$$

INZ028-029-035-036-043>045-051>053-171500-
WEST CENTRAL INDIANA

CITY           SKY/WX    TMP DP  RH WIND       PRES   REMARKS
GREENCASTLE +  CLOUDY    30  27  86 CALM      30.14F
LAFAYETTE      FAIR      26  25  96 SE5       30.14F WCI  20
TERRE HAUTE    CLOUDY    30  28  92 E3        30.13F

$$

INZ030>032-037>040-046>048-054>057-064-065-171500-
CENTRAL INDIANA

CITY           SKY/WX    TMP DP  RH WIND       PRES   REMARKS
ANDERSON       CLOUDY    28  25  86 SE3       30.16
COLUMBUS       CLOUDY    30  27  86 CALM      30.19F
GREENWOOD *+   FAIR     N/A N/A N/A SE5       30.17F
INDIANAPOLIS   CLOUDY    30  25  81 SE8       30.15F WCI  22
-EAGLE CREEK   PTSUNNY   30  24  78 S3        30.16F
KOKOMO +       FAIR      28  25  88 S7        30.16F WCI  21
MT COMFORT *+  FAIR      28  28 100 SE5       30.16F WCI  23
SHELBYVILLE    FAIR      32  25  75 E6        30.16F WCI  26

$$

INZ033-034-041-042-049-050-058-059-171500-
EAST CENTRAL INDIANA

CITY           SKY/WX    TMP DP  RH WIND       PRES   REMARKS
MUNCIE         FAIR      30  23  75 S5        30.16F WCI  25
RICHMOND +     FAIR      30  28  93 E7        30.16F WCI  23

$$

INZ060-061-067>069-081>083-085>088-171500-
SOUTHWEST INDIANA

CITY           SKY/WX    TMP DP  RH WIND       PRES   REMARKS
EVANSVILLE     LGT SNOW  35  32  88 E8        30.12F FOG     WCI  29
HUNTINGBURG +  CLOUDY    34  30  85 NE7       30.15F WCI  28

$$

INZ062-063-066-070>080-084-089>092-171500-
SOUTH CENTRAL AND SOUTHEAST INDIANA

CITY           SKY/WX    TMP DP  RH WIND       PRES   REMARKS
BLOOMINGTON    CLOUDY    31  25  78 SE6       30.14F WCI  25
FRENCH LICK *+ CLOUDY    32  32 100 NE5       30.14F WCI  27
MADISON *+     PTSUNNY   32  30  93 CALM      30.20S

$$





USA.gov is the U.S. government's official web portal to all federal, state and local government web resources and services.